Flag for U.S.A. Weather past 2 weeks in Laredo, Texas, U.S.A.

Now
76 °F

Scattered clouds.


Feels Like: 78 °F
Forecast: 66 / 79 °F
Wind: 9 mph from East

Location: Laredo International Airport


UV Index: 0 (Low)

Visibility: 10 mi


Pressure: 30.16 "Hg

Humidity: 62%

Dew point: 62 °F

Location of LaredoLocation

Historic Weather in Laredo

°F

Laredo temperature yesterday

Maximum temperature yesterday: 80 °F (at 2:56 PM)
Minimum temperature yesterday: 63 °F (at 6:56 AM)
Average temperature yesterday: 71 °F

Past Weeks' High & Low Weather Summary

 TemperatureHumidityPressure
High96 °F (Apr 3, 5:56 PM)100% (Apr 6, 2:56 AM)30.41 "Hg (Apr 6, 2:56 AM)
Low48 °F (Apr 16, 5:56 AM)10% (Apr 7, 3:56 PM)29.59 "Hg (Apr 13, 6:56 PM)
Average72 °F52%29.95 "Hg
* Reported Apr 3 10:56 AM — Apr 18 10:56 AM, Laredo, Weather by CustomWeather, © 2014

Note: Actual official high and low records may vary slightly from our data, if they occured in-between our weather recording intervals... More about our weather records

Advertising

Historic Weather Conditions — Data for Previous 24 hours

 ConditionsComfort  
Time TempWeatherWind HumidityBarometerVisibility
10:56 AM
Apr 18
73 °FBroken clouds.8 mph69%30.16 "Hg10 mi
10:03 AM70 °FMostly cloudy.7 mph78%30.20 "Hg10 mi
9:56 AM69 °FMostly cloudy.8 mph78%30.16 "Hg10 mi
8:56 AM66 °FLow clouds.8 mph87%30.16 "Hg10 mi
7:56 AM66 °FLow clouds.6 mph87%30.15 "Hg10 mi
6:56 AM66 °FLow clouds.8 mph87%30.13 "Hg10 mi
5:56 AM66 °FOvercast.8 mph87%30.11 "Hg10 mi
4:56 AM66 °FOvercast.8 mph85%30.10 "Hg10 mi
3:56 AM67 °FOvercast.8 mph81%30.10 "Hg10 mi
2:56 AM67 °FOvercast.9 mph81%30.11 "Hg10 mi
1:56 AM68 °FOvercast.8 mph81%30.13 "Hg10 mi
12:56 AM69 °FOvercast.10 mph78%30.12 "Hg10 mi
11:56 PM
Apr 17
70 °FOvercast.16 mph76%30.11 "Hg10 mi
10:56 PM72 °FOvercast.15 mph73%30.08 "Hg10 mi
9:56 PM72 °FOvercast.14 mph73%30.05 "Hg10 mi
8:56 PM73 °FMore clouds than sun.12 mph69%30.02 "Hg10 mi
7:56 PM76 °FOvercast.12 mph58%29.98 "Hg10 mi
6:56 PM78 °FOvercast.12 mph54%29.97 "Hg10 mi
5:56 PM80 °FOvercast.14 mph49%29.95 "Hg10 mi
4:56 PM79 °FOvercast.12 mph48%29.95 "Hg10 mi
3:56 PM80 °FOvercast.9 mph45%29.95 "Hg10 mi
2:56 PM80 °FOvercast.10 mph45%29.96 "Hg10 mi
1:56 PM77 °FMostly cloudy.10 mph54%29.97 "Hg10 mi
12:56 PM78 °FPartly sunny.14 mph50%29.98 "Hg10 mi
Weather by CustomWeather, © 2014

See weather overview